sat.trackr.live / text

‹ back to catalog

STARLINK-1560

NORAD 46036 · 2020-055K

PAYLOAD ACTIVE UNKNOWN

§ Identity

Operator
Country
US
Launch date
2020-08-07
Launch site
AFETR
Launch vehicle
Mass (kg)
RCS (m²)

Purposes: comms

External: N2YO · Heavens-Above · Gunter

§ Orbital elements

Epoch: 2026-05-25T05:23:58.774848Z

Period
94.11 min
Inclination
53.1607°
Eccentricity
0.0001520
Mean motion
15.30189983 rev/d
Perigee alt
474.2 km
Apogee alt
476.3 km
Semi-major
6,853.4 km
B*
2.0129e-5
RAAN
131.2165°
Arg perigee
105.2740°
Mean anomaly
254.8429°
Rev number
32,061

§ Raw data

STARLINK-15601 46036U 20055K   26145.22498582  .00000237  00000+0  20129-4 0  99982 46036  53.1607 131.2165 0001520 105.2740 254.8429 15.30189983320612

JSON: /api/v1/satellites/46036 · /tle

For live sub-satellite position, see the globe view (requires WebGL).

§ Visibility from observer

Set your observer location to see the next 7 days of passes ≥ 10°. The values pass through the URL so the page stays shareable.

No JS? Fill the form by hand. The geolocation button needs JavaScript.